Howell, MI

2:44 PM EDT on April 27, 2017 (GMT -0400)
Livingston County

Weather History for KOZW - November, 2013

Change the Weather History Date:

Friday, November 15, 2013

  Actual Average Record
Temperature  
Mean Temperature 44 °F -  
Max Temperature 52 °F 46 °F 68 °F (2001)
Min Temperature 36 °F 32 °F 25 °F (2014)
Degree Days  
Heating Degree Days 21    
Moisture  
Dew Point 26 °F    
Average Humidity 48    
Maximum Humidity 62    
Minimum Humidity 34    
Precipitation  
Precipitation 0.00 in - - ()
Sea Level Pressure  
Sea Level Pressure 30.00 in    
Wind  
Wind Speed 9 mph (SSW)    
Max Wind Speed 14 mph    
Max Gust Speed 20 mph    
Visibility 10 miles    
Events      
Averages and records for this station are not official NWS values.
T = Trace of Precipitation, MM = Missing Value Source: NWS Daily Summary

Daily Weather History Graph

Daily Weather History Graph

Search for Another Location

Airport or City:

Trip Planner

Search our weather history database for the weather conditions in past years. The results will help you decide how hot, cold, wet, or windy it might be!

Date:

Astronomy

Nov. 15, 2013 Rise Set
Actual Time 7:27 AM EST 5:12 PM EST
Civil Twilight 6:57 AM EST 5:43 PM EST
Nautical Twilight 6:23 AM EST 6:17 PM EST
Astronomical Twilight 5:49 AM EST 6:50 PM EST
Moon 4:11 PM EST (11/15) 5:20 AM EST (11/15)
Length of Visible Light 10h 46m
Length of Day
9h 45m
Waxing Gibbous, 96% of the Moon is Illuminated
Nov 15
Waxing Gibbous
Nov 17
Full
Nov 25
Last Quarter
Dec 2
New
Dec 9
First Quarter

Hourly Weather History & Observations

Time (EST) Temp. Windchill Dew Point Humidity Pressure Visibility Wind Dir Wind Speed Gust Speed Precip Events Conditions
12:14 AM 43.7 °F 37.3 °F 22.3 °F 43% 29.99 in 10.0 mi SW 12.7 mph 18.4 mph N/A   Clear
12:34 AM 43.3 °F 37.7 °F 22.1 °F 43% 29.99 in 10.0 mi SW 10.4 mph 17.3 mph N/A   Clear
12:55 AM 42.8 °F 37.0 °F 22.3 °F 44% 29.99 in 10.0 mi SW 10.4 mph 17.3 mph N/A   Clear
1:14 AM 42.6 °F 37.2 °F 22.6 °F 45% 29.99 in 10.0 mi SW 9.2 mph 16.1 mph N/A   Clear
1:34 AM 42.8 °F 37.0 °F 22.3 °F 44% 29.98 in 10.0 mi SW 10.4 mph 16.1 mph N/A   Clear
1:55 AM 42.1 °F 36.6 °F 22.6 °F 46% 29.98 in 10.0 mi SW 9.2 mph - N/A   Clear
2:14 AM 42.1 °F 36.6 °F 22.8 °F 46% 29.99 in 10.0 mi SW 9.2 mph - N/A   Clear
2:34 AM 42.3 °F 37.3 °F 22.6 °F 46% 29.99 in 10.0 mi SW 8.1 mph - N/A   Clear
2:55 AM 42.3 °F 36.3 °F 22.6 °F 46% 29.99 in 10.0 mi SW 10.4 mph - N/A   Clear
3:14 AM 42.4 °F 38.1 °F 22.8 °F 46% 29.99 in 10.0 mi SW 6.9 mph - N/A   Clear
3:34 AM 42.4 °F 36.5 °F 22.6 °F 46% 29.99 in 10.0 mi SW 10.4 mph - N/A   Clear
3:55 AM 41.9 °F 36.3 °F 23.0 °F 47% 29.98 in 10.0 mi SW 9.2 mph - N/A   Clear
4:14 AM 41.4 °F 36.2 °F 23.0 °F 48% 29.98 in 10.0 mi SSW 8.1 mph - N/A   Clear
4:35 AM 41.4 °F 36.2 °F 23.4 °F 49% 29.98 in 10.0 mi SSW 8.1 mph - N/A   Clear
4:55 AM 41.4 °F 36.2 °F 23.5 °F 49% 29.98 in 10.0 mi SSW 8.1 mph - N/A   Clear
5:14 AM 41.0 °F 35.2 °F 23.7 °F 50% 29.98 in 10.0 mi SSW 9.2 mph - N/A   Clear
5:35 AM 40.6 °F 36.0 °F 23.7 °F 51% 29.98 in 10.0 mi SSW 6.9 mph - N/A   Clear
5:55 AM 40.5 °F 36.5 °F 23.9 °F 52% 29.98 in 10.0 mi SSW 5.8 mph - N/A   Clear
6:14 AM 37.6 °F 34.0 °F 23.9 °F 58% 29.98 in 10.0 mi South 4.6 mph - N/A   Clear
6:35 AM 36.9 °F 32.2 °F 24.3 °F 60% 29.99 in 10.0 mi South 5.8 mph - N/A   Clear
6:55 AM 37.0 °F 31.0 °F 24.4 °F 60% 29.99 in 10.0 mi South 8.1 mph - N/A   Clear
7:14 AM 37.2 °F 31.9 °F 24.6 °F 60% 30.00 in 10.0 mi South 6.9 mph - N/A   Clear
7:35 AM 37.0 °F 32.4 °F 24.6 °F 61% 30.01 in 10.0 mi SSW 5.8 mph - N/A   Clear
7:55 AM 37.2 °F 31.9 °F 24.8 °F 61% 30.01 in 10.0 mi South 6.9 mph - N/A   Clear
8:14 AM 38.3 °F 33.9 °F 25.3 °F 60% 30.01 in 10.0 mi SSW 5.8 mph - N/A   Clear
8:35 AM 40.1 °F 35.3 °F 25.7 °F 56% 30.01 in 10.0 mi South 6.9 mph - N/A   Clear
8:55 AM 41.7 °F 36.1 °F 25.5 °F 53% 30.01 in 10.0 mi SSW 9.2 mph - N/A   Clear
9:14 AM 43.2 °F 37.0 °F 25.2 °F 49% 30.02 in 10.0 mi SSW 11.5 mph 19.6 mph N/A   Clear
9:35 AM 43.7 °F 37.7 °F 25.3 °F 48% 30.02 in 10.0 mi SSW 11.5 mph - N/A   Clear
9:55 AM 44.2 °F 38.4 °F 25.9 °F 49% 30.01 in 10.0 mi SSW 11.5 mph - N/A   Clear
10:14 AM 46.2 °F 40.1 °F 26.1 °F 45% 30.01 in 10.0 mi SSW 13.8 mph - N/A   Clear
10:35 AM 47.1 °F - 25.5 °F 43% 30.01 in 10.0 mi SSW 8.1 mph - N/A   Clear
10:55 AM 47.3 °F - 26.1 °F 44% 30.01 in 10.0 mi SSW 9.2 mph - N/A   Clear
11:14 AM 47.8 °F - 26.4 °F 43% 30.02 in 10.0 mi SSW 9.2 mph - N/A   Clear
11:35 AM 49.5 °F - 26.8 °F 41% 30.01 in 10.0 mi SSW 10.4 mph - N/A   Clear
11:54 AM 50.7 °F - 26.2 °F 39% 30.00 in 10.0 mi South 10.4 mph - N/A   Clear
12:14 PM 50.5 °F - 26.2 °F 39% 30.00 in 10.0 mi South 11.5 mph 16.1 mph N/A   Clear
12:35 PM 49.3 °F - 26.4 °F 41% 29.99 in 10.0 mi South 11.5 mph - N/A   Clear
12:54 PM 49.1 °F - 25.7 °F 40% 29.97 in 10.0 mi SSW 10.4 mph - N/A   Clear
1:14 PM 49.5 °F - 24.8 °F 38% 29.97 in 10.0 mi SSW 10.4 mph 17.3 mph N/A   Clear
1:35 PM 51.1 °F - 25.0 °F 36% 29.97 in 10.0 mi SSW 12.7 mph 18.4 mph N/A   Clear
1:54 PM 52.7 °F - 25.5 °F 35% 29.97 in 10.0 mi SSW 10.4 mph 18.4 mph N/A   Clear
2:14 PM 52.2 °F - 25.3 °F 35% 29.97 in 10.0 mi SSW 8.1 mph 17.3 mph N/A   Clear
2:35 PM 52.9 °F - 25.0 °F 34% 29.96 in 10.0 mi SSW 13.8 mph 17.3 mph N/A   Clear
2:54 PM 52.3 °F - 25.7 °F 36% 29.96 in 10.0 mi South 13.8 mph 18.4 mph N/A   Scattered Clouds
3:15 PM 51.1 °F - 25.2 °F 36% 29.97 in 10.0 mi SSW 9.2 mph 16.1 mph N/A   Overcast
3:35 PM 51.1 °F - 24.4 °F 35% 29.97 in 10.0 mi SW 9.2 mph 17.3 mph N/A   Overcast
3:54 PM 51.4 °F - 25.2 °F 36% 29.98 in 10.0 mi SSW 9.2 mph - N/A   Overcast
4:15 PM 50.9 °F - 24.8 °F 36% 29.98 in 10.0 mi SSW 9.2 mph - N/A   Overcast
4:35 PM 50.9 °F - 24.3 °F 35% 29.99 in 10.0 mi SSW 8.1 mph 17.3 mph N/A   Overcast
4:54 PM 50.2 °F - 25.5 °F 38% 29.99 in 10.0 mi SSW 6.9 mph - N/A   Overcast
5:15 PM 49.5 °F - 25.9 °F 40% 29.99 in 10.0 mi SSW 5.8 mph - N/A   Overcast
5:35 PM 48.7 °F - 26.4 °F 42% 29.99 in 10.0 mi SSW 3.5 mph - N/A   Overcast
5:54 PM 47.8 °F - 26.6 °F 44% 29.99 in 10.0 mi South 3.5 mph - N/A   Mostly Cloudy
6:15 PM 45.9 °F 42.9 °F 27.5 °F 49% 30.00 in 10.0 mi South 5.8 mph - N/A   Mostly Cloudy
6:35 PM 45.9 °F 42.3 °F 28.4 °F 51% 30.01 in 10.0 mi South 6.9 mph - N/A   Mostly Cloudy
6:54 PM 45.1 °F 42.0 °F 28.4 °F 52% 30.01 in 10.0 mi South 5.8 mph - N/A   Mostly Cloudy
7:15 PM 45.5 °F 42.5 °F 29.1 °F 53% 30.02 in 10.0 mi South 5.8 mph - N/A   Mostly Cloudy
7:35 PM 44.2 °F 40.3 °F 28.9 °F 55% 30.01 in 10.0 mi South 6.9 mph - N/A   Scattered Clouds
7:54 PM 43.7 °F 40.3 °F 28.9 °F 56% 30.01 in 10.0 mi South 5.8 mph - N/A   Clear
8:15 PM 43.2 °F 39.0 °F 29.1 °F 58% 30.01 in 10.0 mi South 6.9 mph - N/A   Clear
8:35 PM 42.8 °F 38.6 °F 29.1 °F 58% 30.02 in 10.0 mi South 6.9 mph - N/A   Clear
8:54 PM 43.0 °F 38.8 °F 29.1 °F 58% 30.02 in 10.0 mi South 6.9 mph - N/A   Clear
9:15 PM 42.8 °F 38.6 °F 29.1 °F 58% 30.02 in 10.0 mi South 6.9 mph - N/A   Clear
9:35 PM 42.1 °F 37.7 °F 29.1 °F 60% 30.02 in 10.0 mi South 6.9 mph - N/A   Clear
9:54 PM 41.9 °F 39.0 °F 29.1 °F 61% 30.03 in 10.0 mi South 4.6 mph - N/A   Clear
10:15 PM 41.7 °F 38.8 °F 29.1 °F 61% 30.03 in 10.0 mi South 4.6 mph - N/A   Clear
10:35 PM 41.5 °F 37.1 °F 29.1 °F 61% 30.03 in 10.0 mi South 6.9 mph - N/A   Clear
10:54 PM 41.2 °F 37.3 °F 28.9 °F 62% 30.03 in 10.0 mi South 5.8 mph - N/A   Clear
11:15 PM 41.4 °F 36.8 °F 28.9 °F 61% 30.03 in 10.0 mi South 6.9 mph - N/A   Clear
11:35 PM 41.9 °F 37.5 °F 28.9 °F 60% 30.03 in 10.0 mi South 6.9 mph - N/A   Clear
11:54 PM 41.4 °F 37.6 °F 29.1 °F 62% 30.04 in 10.0 mi SSW 5.8 mph - N/A   Clear